TimeMST,TemperatureF,Dew PointF,Humidity,Sea Level PressureIn,VisibilityMPH,Wind Direction,Wind SpeedMPH,Gust SpeedMPH,PrecipitationIn,Events,Conditions,WindDirDegrees,DateUTC
12:52 AM,15.1,6.1,68,30.29,10.0,Calm,Calm,-,N/A,,Clear,0,2011-11-17 07:52:00
1:52 AM,12.9,7.0,77,30.30,10.0,East,6.9,-,N/A,,Clear,90,2011-11-17 08:52:00
2:52 AM,10.9,5.0,77,30.32,10.0,WNW,3.5,-,N/A,,Clear,290,2011-11-17 09:52:00
3:52 AM,12.0,7.0,80,30.31,10.0,Calm,Calm,-,N/A,,Clear,0,2011-11-17 10:52:00
4:52 AM,10.0,5.0,80,30.36,10.0,Calm,Calm,-,N/A,,Clear,0,2011-11-17 11:52:00
5:52 AM,6.1,1.0,80,30.42,10.0,Calm,Calm,-,N/A,,Clear,0,2011-11-17 12:52:00
6:52 AM,9.0,3.9,80,30.40,10.0,WNW,5.8,-,N/A,,Clear,290,2011-11-17 13:52:00
7:52 AM,15.1,9.0,77,30.41,10.0,Calm,Calm,-,N/A,,Clear,0,2011-11-17 14:52:00
8:52 AM,21.9,12.0,66,30.40,10.0,SW,3.5,-,N/A,,Clear,230,2011-11-17 15:52:00
9:52 AM,30.2,14.0,51,30.26,10.0,SSW,5.8,-,N/A,,Clear,200,2011-11-17 16:52:00
10:52 AM,35.1,14.0,42,30.28,10.0,Calm,Calm,-,N/A,,Clear,0,2011-11-17 17:52:00
11:52 AM,39.9,10.0,29,30.25,10.0,Calm,Calm,-,N/A,,Clear,0,2011-11-17 18:52:00
12:52 PM,43.0,7.0,23,30.17,10.0,Calm,Calm,-,N/A,,Clear,0,2011-11-17 19:52:00
1:52 PM,46.0,9.0,22,30.12,10.0,Calm,Calm,-,N/A,,Clear,0,2011-11-17 20:52:00
2:52 PM,48.9,10.9,22,30.09,10.0,SSW,6.9,-,N/A,,Clear,210,2011-11-17 21:52:00
3:52 PM,48.0,12.9,24,30.07,10.0,SSW,3.5,-,N/A,,Clear,210,2011-11-17 22:52:00
4:52 PM,37.9,16.0,41,30.13,10.0,WSW,4.6,-,N/A,,Clear,240,2011-11-17 23:52:00
5:52 PM,33.8,15.8,48,30.05,10.0,SSW,6.9,-,N/A,,Clear,210,2011-11-18 00:52:00
6:52 PM,34.0,14.0,44,30.15,10.0,SW,11.5,-,N/A,,Clear,220,2011-11-18 01:52:00
7:52 PM,27.0,12.0,53,30.16,10.0,South,4.6,-,N/A,,Clear,190,2011-11-18 02:52:00
8:52 PM,24.1,10.0,55,30.14,10.0,South,8.1,-,N/A,,Clear,190,2011-11-18 03:52:00
9:52 PM,23.0,10.9,60,30.09,10.0,South,6.9,-,N/A,,Clear,180,2011-11-18 04:52:00
10:52 PM,19.9,9.0,62,30.07,10.0,Calm,Calm,-,N/A,,Clear,0,2011-11-18 05:52:00
11:52 PM,21.0,12.0,68,30.02,10.0,ESE,3.5,-,N/A,,Clear,110,2011-11-18 06:52:00